TUA1434 UKBB-UTAA

Flight info

Callsign TUA1434
Flight time 3h 1m
Altitude 35000
Route GOTAP DCT VASON DCT KRAMK DCT BEBID DCT TIKNA DCT MOMER DCT AKUKU/N0461F350 DCT KEKAL DCT MAMED MAM11A
Aircraft B738/M-SDE2E3FGHIRWXY/LB1

Departure

Time 2026-04-26 11:43
Airport Boryspil International Airport (UKBB)

Arrival

Time 2026-04-26 14:44
Airport Ashgabat International Airport (UTAA)
Time Latitude Longitude Altitude Speed Heading
2026-04-26 11:22 50.35117 30.89885 408 ft 0 kts 274°
2026-04-26 11:31 50.35117 30.89887 408 ft 0 kts 274°
2026-04-26 11:31 50.35117 30.89907 408 ft 2 kts 271°
2026-04-26 11:31 50.35116 30.89929 408 ft 2 kts 274°
2026-04-26 11:31 50.35115 30.89954 407 ft 2 kts 273°
2026-04-26 11:32 50.35114 30.89974 407 ft 1 kts 274°
2026-04-26 11:32 50.35115 30.89994 406 ft 2 kts 242°
2026-04-26 11:32 50.35127 30.90012 406 ft 2 kts 199°
2026-04-26 11:32 50.35135 30.90014 406 ft 1 kts 176°
2026-04-26 11:33 50.35140 30.90014 406 ft 0 kts 181°
2026-04-26 11:33 50.35138 30.90013 406 ft 0 kts 182°
2026-04-26 11:34 50.35131 30.90013 406 ft 1 kts 183°
2026-04-26 11:34 50.35120 30.90012 406 ft 2 kts 183°
2026-04-26 11:34 50.35104 30.90011 406 ft 2 kts 184°
2026-04-26 11:34 50.35083 30.90009 406 ft 3 kts 184°
2026-04-26 11:35 50.35060 30.90006 406 ft 3 kts 184°
2026-04-26 11:35 50.35028 30.90004 406 ft 7 kts 182°
2026-04-26 11:35 50.34957 30.90000 406 ft 11 kts 179°
2026-04-26 11:35 50.34909 30.90018 406 ft 10 kts 155°
2026-04-26 11:36 50.34884 30.90045 406 ft 0 kts 135°
2026-04-26 11:36 50.34884 30.90051 406 ft 1 kts 92°
2026-04-26 11:36 50.34885 30.90087 406 ft 5 kts 84°
2026-04-26 11:36 50.34887 30.90140 406 ft 4 kts 91°
2026-04-26 11:37 50.34872 30.90199 406 ft 9 kts 127°
2026-04-26 11:37 50.34822 30.90229 406 ft 7 kts 180°
2026-04-26 11:37 50.34775 30.90227 406 ft 6 kts 182°
2026-04-26 11:37 50.34646 30.90219 406 ft 27 kts 182°
2026-04-26 11:38 50.34537 30.90211 406 ft 13 kts 182°
2026-04-26 11:38 50.34448 30.90203 406 ft 11 kts 184°
2026-04-26 11:38 50.34376 30.90197 408 ft 8 kts 183°
2026-04-26 11:38 50.34324 30.90193 409 ft 6 kts 182°
2026-04-26 11:39 50.34261 30.90190 409 ft 11 kts 183°
2026-04-26 11:39 50.34185 30.90184 409 ft 12 kts 182°
2026-04-26 11:39 50.34043 30.90174 409 ft 21 kts 183°
2026-04-26 11:39 50.33873 30.90162 409 ft 35 kts 183°
2026-04-26 11:40 50.33646 30.90146 413 ft 19 kts 182°
2026-04-26 11:40 50.33519 30.90136 413 ft 17 kts 183°
2026-04-26 11:40 50.33404 30.90127 413 ft 15 kts 182°
2026-04-26 11:40 50.33327 30.90193 413 ft 12 kts 111°
2026-04-26 11:41 50.33322 30.90229 412 ft 0 kts 95°
2026-04-26 11:42 50.33773 30.90480 411 ft 82 kts
2026-04-26 11:43 50.34569 30.90538 407 ft 144 kts
2026-04-26 11:43 50.35651 30.90657 789 ft 165 kts
2026-04-26 11:43 50.36832 30.90786 1490 ft 174 kts
2026-04-26 11:43 50.38001 30.90908 2205 ft 169 kts
2026-04-26 11:44 50.39229 30.91014 2644 ft 182 kts 358°
2026-04-26 11:44 50.40474 30.91050 3095 ft 195 kts 359°
2026-04-26 11:44 50.41857 30.91151 3616 ft 206 kts
2026-04-26 11:44 50.43314 30.91250 4114 ft 219 kts 360°
2026-04-26 11:45 50.44847 30.91317 4683 ft 230 kts
2026-04-26 11:45 50.46267 30.91397 5155 ft 241 kts
2026-04-26 11:45 50.47758 30.91513 5752 ft 247 kts
2026-04-26 11:45 50.49839 30.91643 6565 ft 255 kts
2026-04-26 11:46 50.51535 30.91857 7224 ft 261 kts 12°
2026-04-26 11:46 50.53121 30.93194 7816 ft 273 kts 43°
2026-04-26 11:46 50.54168 30.95380 8521 ft 276 kts 54°
2026-04-26 11:46 50.55112 30.98158 9219 ft 283 kts 72°
2026-04-26 11:47 50.55172 30.98491 9288 ft 284 kts 75°
2026-04-26 11:47 50.55199 31.01399 9901 ft 291 kts 97°
2026-04-26 11:48 50.54893 31.04788 10284 ft 309 kts 95°
2026-04-26 11:48 50.54697 31.08146 10427 ft 333 kts 94°
2026-04-26 11:48 50.54489 31.11491 10545 ft 355 kts 95°
2026-04-26 11:48 50.54218 31.15431 10836 ft 374 kts 95°
2026-04-26 11:49 50.53914 31.19791 11550 ft 382 kts 96°
2026-04-26 11:49 50.53626 31.23893 12299 ft 387 kts 96°
2026-04-26 11:49 50.53183 31.28050 13030 ft 393 kts 104°
2026-04-26 11:49 50.52193 31.32028 13775 ft 398 kts 118°
2026-04-26 11:50 50.50598 31.35572 14529 ft 403 kts 129°
2026-04-26 11:50 50.48812 31.38828 15249 ft 408 kts 130°
2026-04-26 11:50 50.47047 31.42099 15937 ft 413 kts 129°
2026-04-26 11:50 50.45257 31.45462 16621 ft 417 kts 129°
2026-04-26 11:51 50.43905 31.47991 17116 ft 421 kts 129°
2026-04-26 11:51 50.42517 31.50575 17614 ft 425 kts 130°
2026-04-26 11:51 50.40607 31.54123 18269 ft 429 kts 130°
2026-04-26 11:51 50.38670 31.57715 18915 ft 434 kts 130°
2026-04-26 11:52 50.36738 31.61293 19533 ft 439 kts 130°
2026-04-26 11:52 50.34743 31.64982 20140 ft 443 kts 130°
2026-04-26 11:52 50.32776 31.68614 20722 ft 448 kts 130°
2026-04-26 11:52 50.30861 31.72144 21268 ft 452 kts 130°
2026-04-26 11:53 50.28805 31.75965 21837 ft 456 kts 129°
2026-04-26 11:53 50.26969 31.79859 22361 ft 460 kts 124°
2026-04-26 11:53 50.25343 31.84174 22880 ft 464 kts 116°
2026-04-26 11:54 50.23089 31.93604 23871 ft 472 kts 107°
2026-04-26 11:54 50.22063 31.98477 24385 ft 475 kts 108°
2026-04-26 11:54 50.21008 32.03385 24876 ft 478 kts 108°
2026-04-26 11:54 50.19951 32.08286 25348 ft 482 kts 108°
2026-04-26 11:55 50.18876 32.13279 25790 ft 485 kts 108°
2026-04-26 11:55 50.17812 32.18228 26207 ft 489 kts 108°
2026-04-26 11:55 50.16722 32.23290 26792 ft 488 kts 108°
2026-04-26 11:55 50.15651 32.28251 27435 ft 485 kts 108°
2026-04-26 11:56 50.14572 32.33240 27945 ft 485 kts 108°
2026-04-26 11:56 50.13496 32.38206 28465 ft 485 kts 108°
2026-04-26 11:56 50.12425 32.43143 28968 ft 484 kts 107°
2026-04-26 11:56 50.11342 32.48118 29457 ft 483 kts 107°
2026-04-26 11:57 50.10264 32.53065 29916 ft 483 kts 107°
2026-04-26 11:57 50.09187 32.57993 30349 ft 483 kts 107°
2026-04-26 11:57 50.08109 32.62915 30775 ft 483 kts 107°
2026-04-26 11:57 50.07060 32.67691 31182 ft 482 kts 108°
2026-04-26 11:58 50.05961 32.72687 31575 ft 482 kts 108°
2026-04-26 11:58 50.04870 32.77630 31977 ft 481 kts 108°
2026-04-26 11:58 50.03789 32.82518 32338 ft 481 kts 108°
2026-04-26 11:58 50.02699 32.87442 32686 ft 481 kts 108°
2026-04-26 11:59 50.01609 32.92349 33055 ft 480 kts 108°
2026-04-26 11:59 50.00516 32.97253 33374 ft 481 kts 108°
2026-04-26 11:59 49.99428 33.02131 33722 ft 480 kts 108°
2026-04-26 11:59 49.98334 33.07019 34084 ft 478 kts 107°
2026-04-26 12:00 49.97252 33.11850 34412 ft 477 kts 107°
2026-04-26 12:00 49.96146 33.16769 34638 ft 479 kts 107°
2026-04-26 12:00 49.95047 33.21654 34596 ft 482 kts 107°
2026-04-26 12:01 49.92841 33.31411 34541 ft 478 kts 107°
2026-04-26 12:01 49.90655 33.41038 34507 ft 476 kts 107°
2026-04-26 12:02 49.88440 33.50750 34507 ft 477 kts 107°
2026-04-26 12:02 49.86222 33.60426 34506 ft 478 kts 107°
2026-04-26 12:03 49.83998 33.70087 34507 ft 478 kts 108°
2026-04-26 12:03 49.81721 33.79769 34506 ft 479 kts 110°
2026-04-26 12:04 49.79055 33.89204 34506 ft 479 kts 112°
2026-04-26 12:04 49.76382 33.98640 34506 ft 479 kts 112°
2026-04-26 12:05 49.73748 34.08002 34506 ft 479 kts 112°
2026-04-26 12:05 49.71091 34.17404 34506 ft 479 kts 112°
2026-04-26 12:06 49.68424 34.26822 34506 ft 479 kts 112°
2026-04-26 12:06 49.65746 34.36247 34506 ft 479 kts 112°
2026-04-26 12:07 49.63080 34.45595 34506 ft 479 kts 112°
2026-04-26 12:07 49.60390 34.54992 34506 ft 479 kts 112°
2026-04-26 12:08 49.57695 34.64370 34506 ft 479 kts 112°
2026-04-26 12:08 49.55005 34.73695 34506 ft 479 kts 112°
2026-04-26 12:09 49.52290 34.83074 34506 ft 479 kts 112°
2026-04-26 12:09 49.49588 34.92368 34506 ft 478 kts 112°
2026-04-26 12:10 49.46856 35.01731 34506 ft 478 kts 112°
2026-04-26 12:10 49.44144 35.10986 34506 ft 478 kts 112°
2026-04-26 12:11 49.41415 35.20265 34506 ft 478 kts 112°
2026-04-26 12:11 49.38676 35.29543 34506 ft 478 kts 112°
2026-04-26 12:12 49.35921 35.38840 34506 ft 478 kts 112°
2026-04-26 12:12 49.33154 35.48142 34506 ft 479 kts 112°
2026-04-26 12:13 49.30397 35.57375 34507 ft 479 kts 112°
2026-04-26 12:13 49.27625 35.66624 34506 ft 479 kts 113°
2026-04-26 12:14 49.24847 35.75852 34506 ft 479 kts 113°
2026-04-26 12:14 49.22053 35.85102 34506 ft 479 kts 113°
2026-04-26 12:15 49.19265 35.94298 34506 ft 479 kts 113°
2026-04-26 12:15 49.16449 36.03552 34506 ft 479 kts 113°
2026-04-26 12:16 49.13643 36.12739 34506 ft 479 kts 113°
2026-04-26 12:16 49.10827 36.21922 34506 ft 479 kts 113°
2026-04-26 12:17 49.08014 36.31063 34506 ft 478 kts 114°
2026-04-26 12:17 49.05176 36.40252 34507 ft 478 kts 114°
2026-04-26 12:18 49.02366 36.49316 34507 ft 476 kts 114°
2026-04-26 12:18 48.99531 36.58425 34507 ft 476 kts 114°
2026-04-26 12:19 48.96686 36.67541 34506 ft 475 kts 115°
2026-04-26 12:19 48.93861 36.76558 34506 ft 474 kts 115°
2026-04-26 12:20 48.91015 36.85582 34507 ft 475 kts 115°
2026-04-26 12:20 48.88165 36.94612 34506 ft 474 kts 115°
2026-04-26 12:21 48.85306 37.03636 34507 ft 475 kts 115°
2026-04-26 12:21 48.82424 37.12675 34506 ft 478 kts 116°
2026-04-26 12:22 48.79518 37.21745 34507 ft 481 kts 116°
2026-04-26 12:22 48.76595 37.30865 34506 ft 481 kts 115°
2026-04-26 12:23 48.73667 37.39954 34506 ft 480 kts 115°
2026-04-26 12:23 48.70739 37.49022 34506 ft 481 kts 115°
2026-04-26 12:24 48.67816 37.58096 34506 ft 480 kts 115°
2026-04-26 12:24 48.64856 37.67046 34506 ft 480 kts 118°
2026-04-26 12:25 48.60169 37.80388 34669 ft 480 kts 118°
2026-04-26 12:25 48.57070 37.89280 34809 ft 479 kts 117°
2026-04-26 12:26 48.53963 37.98190 34884 ft 480 kts 118°
2026-04-26 12:26 48.50843 38.07053 34885 ft 479 kts 118°
2026-04-26 12:27 48.47727 38.15890 34885 ft 479 kts 118°
2026-04-26 12:27 48.44600 38.24726 34885 ft 479 kts 118°
2026-04-26 12:28 48.41452 38.33580 34884 ft 480 kts 118°
2026-04-26 12:28 48.38323 38.42401 34885 ft 479 kts 118°
2026-04-26 12:29 48.35184 38.51179 34885 ft 480 kts 118°
2026-04-26 12:30 48.30428 38.64399 34885 ft 479 kts 118°
2026-04-26 12:30 48.27273 38.73180 34884 ft 479 kts 118°
2026-04-26 12:31 48.22508 38.86344 34884 ft 479 kts 118°
2026-04-26 12:31 48.19323 38.95109 34885 ft 480 kts 119°
2026-04-26 12:32 48.16118 39.03903 34885 ft 485 kts 118°
2026-04-26 12:33 48.11240 39.17231 34885 ft 487 kts 119°
2026-04-26 12:33 48.07998 39.26031 34885 ft 487 kts 118°
2026-04-26 12:34 48.04732 39.34915 34885 ft 486 kts 118°
2026-04-26 12:34 48.01483 39.43744 34884 ft 487 kts 118°
2026-04-26 12:35 47.98176 39.52590 34885 ft 488 kts 119°
2026-04-26 12:35 47.94904 39.61378 34885 ft 488 kts 118°
2026-04-26 12:36 47.91615 39.70209 34884 ft 488 kts 119°
2026-04-26 12:36 47.88318 39.78987 34885 ft 487 kts 120°
2026-04-26 12:37 47.84992 39.87767 34885 ft 488 kts 120°
2026-04-26 12:37 47.81661 39.96557 34885 ft 487 kts 119°
2026-04-26 12:38 47.78341 40.05363 34884 ft 488 kts 120°
2026-04-26 12:38 47.75024 40.14090 34885 ft 487 kts 120°
2026-04-26 12:39 47.71687 40.22817 34885 ft 486 kts 119°
2026-04-26 12:39 47.68361 40.31546 34885 ft 488 kts 119°
2026-04-26 12:40 47.65032 40.40247 34885 ft 488 kts 120°
2026-04-26 12:40 47.61663 40.48971 34885 ft 487 kts 120°
2026-04-26 12:41 47.58308 40.57634 34885 ft 487 kts 120°
2026-04-26 12:41 47.54927 40.66341 34885 ft 487 kts 120°
2026-04-26 12:42 47.51577 40.75015 34885 ft 488 kts 120°
2026-04-26 12:42 47.48217 40.83669 34884 ft 487 kts 120°
2026-04-26 12:43 47.44803 40.92344 34885 ft 493 kts 120°
2026-04-26 12:43 47.41331 41.01182 34884 ft 499 kts 120°
2026-04-26 12:44 47.37832 41.10047 34885 ft 502 kts 120°
2026-04-26 12:44 47.34277 41.18861 34885 ft 500 kts 120°
2026-04-26 12:45 47.30748 41.27602 34885 ft 500 kts 120°
2026-04-26 12:45 47.27192 41.36442 34885 ft 500 kts 120°
2026-04-26 12:46 47.23662 41.45261 34885 ft 501 kts 120°
2026-04-26 12:46 47.20152 41.53992 34885 ft 499 kts 120°
2026-04-26 12:47 47.16572 41.62732 34885 ft 500 kts 120°
2026-04-26 12:47 47.13008 41.71469 34885 ft 500 kts 121°
2026-04-26 12:48 47.09449 41.80213 34898 ft 499 kts 121°
2026-04-26 12:48 47.05868 41.88920 34937 ft 501 kts 121°
2026-04-26 12:49 47.02294 41.97599 34977 ft 498 kts 121°
2026-04-26 12:49 46.98714 42.06289 34993 ft 501 kts 122°
2026-04-26 12:50 46.95104 42.15025 34993 ft 502 kts 123°
2026-04-26 12:50 46.91503 42.23714 34993 ft 501 kts 123°
2026-04-26 12:51 46.87900 42.32384 34992 ft 498 kts 124°
2026-04-26 12:51 46.84325 42.40965 34993 ft 497 kts 124°
2026-04-26 12:52 46.80704 42.49607 34993 ft 498 kts 124°
2026-04-26 12:52 46.77086 42.58147 35003 ft 497 kts 124°
2026-04-26 12:53 46.73435 42.66765 35013 ft 497 kts 125°
2026-04-26 12:53 46.69835 42.75346 35018 ft 498 kts 124°
2026-04-26 12:54 46.66202 42.83915 35014 ft 498 kts 125°
2026-04-26 12:54 46.62552 42.92402 35017 ft 496 kts 125°
2026-04-26 12:55 46.58923 43.00894 35020 ft 498 kts 125°
2026-04-26 12:55 46.55264 43.09488 35020 ft 500 kts 125°
2026-04-26 12:56 46.51616 43.17999 35021 ft 501 kts 126°
2026-04-26 12:56 46.47909 43.26559 35020 ft 503 kts 126°
2026-04-26 12:57 46.44236 43.35174 35020 ft 500 kts 125°
2026-04-26 12:57 46.40653 43.43731 35020 ft 502 kts 125°
2026-04-26 12:58 46.35171 43.56659 35019 ft 503 kts 125°
2026-04-26 12:58 46.31477 43.65253 35020 ft 503 kts 126°
2026-04-26 12:59 46.27822 43.73806 35020 ft 500 kts 126°
2026-04-26 12:59 46.24197 43.82350 35019 ft 502 kts 126°
2026-04-26 13:00 46.20514 43.90954 34993 ft 503 kts 126°
2026-04-26 13:00 46.16850 43.99451 34993 ft 500 kts 126°
2026-04-26 13:01 46.13137 44.08014 34993 ft 502 kts 126°
2026-04-26 13:01 46.09456 44.16442 34992 ft 501 kts 126°
2026-04-26 13:02 46.05808 44.24758 34993 ft 502 kts 126°
2026-04-26 13:02 46.02115 44.33231 34993 ft 502 kts 126°
2026-04-26 13:03 45.98423 44.41745 34993 ft 501 kts 126°
2026-04-26 13:03 45.94724 44.50123 34992 ft 500 kts 126°
2026-04-26 13:04 45.91000 44.58530 34993 ft 502 kts 126°
2026-04-26 13:04 45.87257 44.67010 34993 ft 502 kts 126°
2026-04-26 13:05 45.83571 44.75439 34993 ft 501 kts 127°
2026-04-26 13:05 45.79821 44.83865 34992 ft 503 kts 127°
2026-04-26 13:06 45.76022 44.92302 34992 ft 500 kts 127°
2026-04-26 13:06 45.72271 45.00644 34993 ft 504 kts 128°
2026-04-26 13:07 45.68486 45.09081 34993 ft 507 kts 128°
2026-04-26 13:07 45.64680 45.17592 34992 ft 508 kts 128°
2026-04-26 13:08 45.60887 45.26015 34993 ft 507 kts 128°
2026-04-26 13:08 45.57048 45.34498 34993 ft 507 kts 128°
2026-04-26 13:09 45.53227 45.42928 34993 ft 506 kts 128°
2026-04-26 13:09 45.49403 45.51335 34993 ft 508 kts 128°
2026-04-26 13:10 45.45570 45.59719 34993 ft 509 kts 128°
2026-04-26 13:10 45.41719 45.68127 34993 ft 508 kts 129°
2026-04-26 13:11 45.37864 45.76549 34993 ft 507 kts 129°
2026-04-26 13:11 45.34020 45.84881 34992 ft 506 kts 129°
2026-04-26 13:12 45.30152 45.93238 34985 ft 506 kts 129°
2026-04-26 13:12 45.26326 46.01499 34974 ft 505 kts 129°
2026-04-26 13:13 45.22452 46.09806 34967 ft 506 kts 129°
2026-04-26 13:13 45.18560 46.18143 34989 ft 507 kts 129°
2026-04-26 13:14 45.14674 46.26472 34986 ft 508 kts 129°
2026-04-26 13:14 45.10794 46.34758 34972 ft 507 kts 129°
2026-04-26 13:15 45.06889 46.43062 35006 ft 509 kts 129°
2026-04-26 13:15 45.02939 46.51430 35014 ft 514 kts 130°
2026-04-26 13:16 44.98988 46.59794 35007 ft 516 kts 130°
2026-04-26 13:16 44.94988 46.68247 35026 ft 517 kts 131°
2026-04-26 13:17 44.88995 46.80827 35045 ft 517 kts 131°
2026-04-26 13:18 44.82980 46.93406 35049 ft 516 kts 131°
2026-04-26 13:19 44.76972 47.05913 35081 ft 515 kts 131°
2026-04-26 13:19 44.72950 47.14254 35067 ft 516 kts 131°
2026-04-26 13:20 44.68950 47.22529 35076 ft 515 kts 131°
2026-04-26 13:20 44.64910 47.30860 35102 ft 516 kts 131°
2026-04-26 13:21 44.60886 47.39135 35096 ft 516 kts 131°
2026-04-26 13:21 44.56819 47.47475 35090 ft 516 kts 131°
2026-04-26 13:22 44.52795 47.55703 35083 ft 516 kts 131°
2026-04-26 13:22 44.48779 47.64059 35076 ft 516 kts 129°
2026-04-26 13:23 44.45007 47.72577 35074 ft 517 kts 129°
2026-04-26 13:23 44.41179 47.81096 35074 ft 517 kts 130°
2026-04-26 13:24 44.37371 47.89510 35074 ft 517 kts 129°
2026-04-26 13:24 44.33509 47.98020 35074 ft 517 kts 129°
2026-04-26 13:25 44.29659 48.06470 35074 ft 518 kts 130°
2026-04-26 13:25 44.25796 48.14923 35074 ft 517 kts 130°
2026-04-26 13:26 44.21960 48.23293 35074 ft 517 kts 130°
2026-04-26 13:26 44.18080 48.31731 35074 ft 517 kts 130°
2026-04-26 13:27 44.14216 48.40111 35074 ft 517 kts 130°
2026-04-26 13:27 44.10318 48.48537 35074 ft 517 kts 130°
2026-04-26 13:28 44.06427 48.56924 35074 ft 517 kts 129°
2026-04-26 13:28 44.02542 48.65279 35074 ft 517 kts 130°
2026-04-26 13:29 43.98637 48.73650 35074 ft 516 kts 130°
2026-04-26 13:29 43.94755 48.81944 35074 ft 515 kts 130°
2026-04-26 13:30 43.90857 48.90251 35074 ft 516 kts 130°
2026-04-26 13:30 43.86950 48.98552 35075 ft 516 kts 130°
2026-04-26 13:31 43.83006 49.06911 35074 ft 517 kts 130°
2026-04-26 13:31 43.79090 49.15187 35074 ft 516 kts 130°
2026-04-26 13:32 43.75151 49.23483 35084 ft 518 kts 130°
2026-04-26 13:32 43.71193 49.31803 35121 ft 516 kts 131°
2026-04-26 13:33 43.67263 49.40033 35159 ft 517 kts 130°
2026-04-26 13:33 43.63291 49.48327 35182 ft 518 kts 130°
2026-04-26 13:34 43.59320 49.56603 35182 ft 518 kts 130°
2026-04-26 13:34 43.55368 49.64813 35182 ft 517 kts 131°
2026-04-26 13:35 43.51397 49.73038 35182 ft 517 kts 131°
2026-04-26 13:35 43.47416 49.81262 35182 ft 516 kts 131°
2026-04-26 13:36 43.43439 49.89454 35182 ft 517 kts 131°
2026-04-26 13:36 43.39431 49.97683 35182 ft 518 kts 131°
2026-04-26 13:37 43.35436 50.05870 35182 ft 517 kts 131°
2026-04-26 13:37 43.31424 50.14067 35182 ft 516 kts 131°
2026-04-26 13:38 43.27431 50.22200 35182 ft 516 kts 131°
2026-04-26 13:38 43.23418 50.30351 35182 ft 516 kts 131°
2026-04-26 13:39 43.19381 50.38529 35182 ft 517 kts 131°
2026-04-26 13:39 43.15367 50.46638 35182 ft 517 kts 131°
2026-04-26 13:40 43.11333 50.54767 35182 ft 516 kts 131°
2026-04-26 13:40 43.07287 50.62895 35182 ft 517 kts 131°
2026-04-26 13:41 43.03253 50.70981 35182 ft 515 kts 132°
2026-04-26 13:41 42.99236 50.79008 35181 ft 511 kts 131°
2026-04-26 13:42 42.95272 50.86911 35182 ft 506 kts 131°
2026-04-26 13:42 42.91295 50.94815 35182 ft 502 kts 130°
2026-04-26 13:43 42.87373 51.02591 35182 ft 499 kts 129°
2026-04-26 13:43 42.83435 51.10339 35182 ft 499 kts 130°
2026-04-26 13:44 42.79257 51.17879 35182 ft 499 kts 133°
2026-04-26 13:44 42.75042 51.25403 35182 ft 500 kts 132°
2026-04-26 13:45 42.70871 51.32916 35182 ft 500 kts 132°
2026-04-26 13:45 42.66681 51.40426 35182 ft 500 kts 132°
2026-04-26 13:46 42.62493 51.47941 35182 ft 499 kts 131°
2026-04-26 13:46 42.58308 51.55431 35182 ft 499 kts 132°
2026-04-26 13:47 42.54110 51.62899 35181 ft 499 kts 132°
2026-04-26 13:47 42.49905 51.70357 35182 ft 499 kts 133°
2026-04-26 13:48 42.45705 51.77802 35182 ft 499 kts 132°
2026-04-26 13:48 42.41512 51.85247 35182 ft 499 kts 133°
2026-04-26 13:49 42.37290 51.92696 35182 ft 498 kts 133°
2026-04-26 13:49 42.33127 51.99995 35182 ft 498 kts 133°
2026-04-26 13:50 42.28915 52.07371 35182 ft 498 kts 133°
2026-04-26 13:50 42.24705 52.14748 35182 ft 499 kts 133°
2026-04-26 13:51 42.20466 52.22171 35176 ft 499 kts 133°
2026-04-26 13:51 42.16248 52.29532 35162 ft 499 kts 133°
2026-04-26 13:52 42.12011 52.36914 35143 ft 499 kts 133°
2026-04-26 13:52 42.07758 52.44271 35129 ft 500 kts 133°
2026-04-26 13:53 42.03508 52.51634 35128 ft 499 kts 132°
2026-04-26 13:53 41.99263 52.58971 35128 ft 498 kts 133°
2026-04-26 13:54 41.94989 52.66314 35128 ft 499 kts 133°
2026-04-26 13:54 41.90722 52.73648 35128 ft 498 kts 133°
2026-04-26 13:55 41.85031 52.83393 35128 ft 498 kts 133°
2026-04-26 13:56 41.77914 52.95552 35127 ft 500 kts 133°
2026-04-26 13:56 41.73630 53.02835 35128 ft 502 kts 133°
2026-04-26 13:57 41.69310 53.10165 35128 ft 501 kts 133°
2026-04-26 13:57 41.65013 53.17448 35128 ft 502 kts 133°
2026-04-26 13:58 41.60688 53.24760 35128 ft 501 kts 133°
2026-04-26 13:58 41.56365 53.32024 35128 ft 501 kts 133°
2026-04-26 13:59 41.52037 53.39290 35128 ft 501 kts 133°
2026-04-26 13:59 41.47723 53.46534 35128 ft 502 kts 133°
2026-04-26 14:00 41.39031 53.61062 35128 ft 504 kts 133°
2026-04-26 14:01 41.34653 53.68328 35128 ft 501 kts 134°
2026-04-26 14:01 41.30308 53.75548 35128 ft 501 kts 134°
2026-04-26 14:02 41.25957 53.82758 35128 ft 502 kts 134°
2026-04-26 14:02 41.21603 53.89956 35128 ft 502 kts 134°
2026-04-26 14:03 41.17250 53.97133 35128 ft 502 kts 134°
2026-04-26 14:03 41.12930 54.04233 35128 ft 502 kts 134°
2026-04-26 14:04 41.08547 54.11429 35128 ft 500 kts 133°
2026-04-26 14:04 41.04218 54.18525 35128 ft 496 kts 133°
2026-04-26 14:05 40.99920 54.25571 35128 ft 492 kts 133°
2026-04-26 14:05 40.95606 54.32571 35128 ft 489 kts 133°
2026-04-26 14:06 40.91339 54.39511 35129 ft 488 kts 133°
2026-04-26 14:06 40.87094 54.46426 35128 ft 490 kts 133°
2026-04-26 14:07 40.82806 54.53347 35127 ft 489 kts 133°
2026-04-26 14:07 40.78587 54.60162 35128 ft 489 kts 133°
2026-04-26 14:08 40.74276 54.67123 35128 ft 489 kts 134°
2026-04-26 14:08 40.69996 54.74038 35128 ft 488 kts 134°
2026-04-26 14:09 40.65693 54.80898 35128 ft 489 kts 134°
2026-04-26 14:09 40.61375 54.87769 35128 ft 488 kts 134°
2026-04-26 14:10 40.57041 54.94666 35128 ft 489 kts 134°
2026-04-26 14:10 40.52724 55.01522 35128 ft 490 kts 134°
2026-04-26 14:11 40.46235 55.11894 35128 ft 491 kts 134°
2026-04-26 14:11 40.41894 55.18770 35128 ft 494 kts 134°
2026-04-26 14:12 40.37501 55.25695 35128 ft 494 kts 134°
2026-04-26 14:12 40.33130 55.32606 35128 ft 493 kts 133°
2026-04-26 14:13 40.26591 55.42905 35128 ft 493 kts 134°
2026-04-26 14:14 40.22212 55.49772 35128 ft 493 kts 134°
2026-04-26 14:14 40.17820 55.56650 35128 ft 493 kts 134°
2026-04-26 14:15 40.13425 55.63509 35123 ft 493 kts 134°
2026-04-26 14:15 40.09037 55.70325 35105 ft 493 kts 134°
2026-04-26 14:16 40.04641 55.77156 35086 ft 493 kts 134°
2026-04-26 14:16 40.00259 55.83952 35075 ft 492 kts 134°
2026-04-26 14:17 39.95839 55.90819 35074 ft 494 kts 134°
2026-04-26 14:17 39.91457 55.97610 35074 ft 493 kts 134°
2026-04-26 14:18 39.87037 56.04417 35074 ft 492 kts 134°
2026-04-26 14:18 39.82628 56.11180 35074 ft 493 kts 134°
2026-04-26 14:19 39.78220 56.17925 35074 ft 493 kts 134°
2026-04-26 14:19 39.73781 56.24735 35082 ft 493 kts 134°
2026-04-26 14:20 39.69527 56.31261 35090 ft 493 kts 134°
2026-04-26 14:20 39.65078 56.38047 35097 ft 493 kts 134°
2026-04-26 14:21 39.60657 56.44780 35101 ft 492 kts 134°
2026-04-26 14:21 39.56226 56.51517 35101 ft 493 kts 134°
2026-04-26 14:22 39.51767 56.58244 35101 ft 493 kts 134°
2026-04-26 14:22 39.47318 56.64938 35101 ft 491 kts 134°
2026-04-26 14:23 39.42921 56.71571 35101 ft 492 kts 135°
2026-04-26 14:23 39.38453 56.78302 35101 ft 492 kts 135°
2026-04-26 14:24 39.33653 56.84444 35102 ft 486 kts 144°
2026-04-26 14:24 39.28572 56.90224 35102 ft 488 kts 143°
2026-04-26 14:25 39.23563 56.96053 35103 ft 487 kts 143°
2026-04-26 14:25 39.18516 57.01862 34562 ft 489 kts 143°
2026-04-26 14:25 39.15994 57.04747 33688 ft 493 kts 143°
2026-04-26 14:26 39.13413 57.07693 32761 ft 497 kts 143°
2026-04-26 14:26 39.10851 57.10622 31808 ft 501 kts 143°
2026-04-26 14:26 39.08229 57.13617 30798 ft 506 kts 142°
2026-04-26 14:26 39.05631 57.16583 29764 ft 510 kts 142°
2026-04-26 14:27 39.02965 57.19631 28659 ft 515 kts 142°
2026-04-26 14:27 39.00425 57.22539 27552 ft 503 kts 142°
2026-04-26 14:27 38.97816 57.25534 26377 ft 491 kts 141°
2026-04-26 14:27 38.95923 57.27707 25491 ft 484 kts 141°
2026-04-26 14:28 38.93571 57.30398 24756 ft 472 kts 141°
2026-04-26 14:28 38.91136 57.33173 23965 ft 472 kts 141°
2026-04-26 14:28 38.88957 57.35651 23253 ft 472 kts 141°
2026-04-26 14:28 38.86350 57.38615 22385 ft 471 kts 141°
2026-04-26 14:29 38.83890 57.41407 21554 ft 471 kts 141°
2026-04-26 14:29 38.81459 57.44164 20727 ft 470 kts 141°
2026-04-26 14:29 38.79044 57.46901 19880 ft 461 kts 141°
2026-04-26 14:29 38.76720 57.49536 19097 ft 440 kts 141°
2026-04-26 14:30 38.74460 57.52095 18309 ft 422 kts 141°
2026-04-26 14:30 38.72297 57.54537 17555 ft 413 kts 141°
2026-04-26 14:30 38.70126 57.56980 16796 ft 418 kts 141°
2026-04-26 14:30 38.67987 57.59390 16031 ft 406 kts 141°
2026-04-26 14:31 38.65913 57.61729 15329 ft 400 kts 141°
2026-04-26 14:31 38.63805 57.64098 14598 ft 405 kts 140°
2026-04-26 14:31 38.61753 57.66406 13868 ft 389 kts 141°
2026-04-26 14:31 38.59677 57.68636 13172 ft 396 kts 143°
2026-04-26 14:32 38.57504 57.70869 12405 ft 399 kts 143°
2026-04-26 14:32 38.55391 57.73057 11747 ft 397 kts 143°
2026-04-26 14:32 38.53268 57.75269 11294 ft 389 kts 143°
2026-04-26 14:32 38.51199 57.77423 11032 ft 377 kts 143°
2026-04-26 14:33 38.49195 57.79508 10785 ft 365 kts 143°
2026-04-26 14:33 38.47250 57.81529 10556 ft 353 kts 143°
2026-04-26 14:33 38.45380 57.83472 10369 ft 341 kts 143°
2026-04-26 14:33 38.43596 57.85323 10184 ft 330 kts 143°
2026-04-26 14:34 38.41843 57.87141 9826 ft 325 kts 143°
2026-04-26 14:34 38.40097 57.88952 9408 ft 322 kts 143°
2026-04-26 14:34 38.38374 57.90736 9002 ft 319 kts 143°
2026-04-26 14:34 38.36674 57.92497 8603 ft 316 kts 143°
2026-04-26 14:35 38.34981 57.94249 8205 ft 313 kts 142°
2026-04-26 14:35 38.33326 57.95962 7812 ft 297 kts 142°
2026-04-26 14:35 38.31776 57.97566 7449 ft 281 kts 142°
2026-04-26 14:35 38.30312 57.99078 7104 ft 267 kts 142°
2026-04-26 14:36 38.28895 58.00542 6770 ft 254 kts 142°
2026-04-26 14:36 38.27561 58.01918 6458 ft 245 kts 142°
2026-04-26 14:36 38.26201 58.03319 6140 ft 254 kts 142°
2026-04-26 14:36 38.24844 58.04719 5815 ft 253 kts 142°
2026-04-26 14:37 38.23485 58.06120 5491 ft 251 kts 141°
2026-04-26 14:37 38.22150 58.07496 5174 ft 249 kts 141°
2026-04-26 14:37 38.21649 58.08012 5055 ft 249 kts 141°
2026-04-26 14:37 38.20769 58.08918 4845 ft 248 kts 141°
2026-04-26 14:38 38.19442 58.10284 4530 ft 246 kts 141°
2026-04-26 14:38 38.18109 58.11648 4246 ft 242 kts 143°
2026-04-26 14:38 38.16682 58.12690 4135 ft 233 kts 153°
2026-04-26 14:38 38.15282 58.13573 3937 ft 227 kts 151°
2026-04-26 14:39 38.13996 58.14434 3757 ft 221 kts 151°
2026-04-26 14:39 38.12755 58.15271 3579 ft 216 kts 150°
2026-04-26 14:39 38.11461 58.16151 3353 ft 212 kts 150°
2026-04-26 14:39 38.10167 58.17034 3112 ft 208 kts 150°
2026-04-26 14:40 38.08907 58.17894 2888 ft 206 kts 150°
2026-04-26 14:40 38.07634 58.18765 2674 ft 209 kts 149°
2026-04-26 14:40 38.06445 58.19804 2492 ft 203 kts 134°
2026-04-26 14:40 38.05681 58.21171 2496 ft 182 kts 113°
2026-04-26 14:41 38.05214 58.22519 2486 ft 163 kts 118°
2026-04-26 14:41 38.04678 58.23751 2498 ft 156 kts 118°
2026-04-26 14:41 38.04159 58.24934 2337 ft 154 kts 118°
2026-04-26 14:41 38.03654 58.26081 2193 ft 145 kts 118°
2026-04-26 14:42 38.03173 58.27169 1960 ft 141 kts 118°
2026-04-26 14:42 38.02697 58.28246 1785 ft 139 kts 118°
2026-04-26 14:42 38.02222 58.29316 1626 ft 136 kts 118°
2026-04-26 14:42 38.01769 58.30342 1450 ft 131 kts 117°
2026-04-26 14:43 38.01337 58.31334 1288 ft 127 kts 117°
2026-04-26 14:43 38.00891 58.32316 1121 ft 132 kts 117°
2026-04-26 14:43 38.00449 58.33325 926 ft 129 kts 116°
2026-04-26 14:43 38.00023 58.34295 723 ft 121 kts 116°
2026-04-26 14:44 37.99621 58.35206 683 ft 114 kts 117°
2026-04-26 14:44 37.99281 58.35971 685 ft 69 kts 118°
2026-04-26 14:44 37.99100 58.36382 687 ft 46 kts 119°
2026-04-26 14:44 37.98957 58.36701 688 ft 35 kts 118°
2026-04-26 14:45 37.98902 58.36766 688 ft 0 kts 176°
2026-04-26 14:45 37.98900 58.36766 688 ft 0 kts 186°
2026-04-26 14:45 37.98888 58.36758 688 ft 5 kts 212°
2026-04-26 14:45 37.98829 58.36709 686 ft 14 kts 212°
2026-04-26 14:46 37.98817 58.36699 686 ft 0 kts 210°